Tracking 17844 objects as of 24-August-2016
HD Live streaming from Space Station
objects crossing your sky now

COSMOS 1803

Track COSMOS 1803 now!
10-day predictions
COSMOS 1803 is classified as:


NORAD ID: 17177
Int'l Code: 1986-094A
Perigee: 1,504.5 km
Apogee: 1,509.8 km
Inclination: 82.6 °
Period: 116.0 minutes
Semi major axis: 7878 km
RCS: 10.2434 m2 (large)
Launch date: December 2, 1986
Source: Commonwealth of Independent States (former USSR) (CIS)
Launch site: PLESETSK MISSILE AND SPACE COMPLEX (PKMTR)
Your satellite tracking list
Your tracking list is empty





NASA's NSSDC Master Catalog

Two Line Element Set (TLE):
1 17177U 86094A   16236.98556675 -.00000001  00000-0 -84242-4 0  9996
2 17177  82.6041  42.7252 0003383 354.3599 119.5932 12.41550961347393
Source of the keplerian elements: AFSPC

N2YO: 547